Regional Weather Roundup
Issued by NWS

Home | Current Version | Previous Version | Graphics & Text | Print | Product List | Glossary On
Versions: 1 2 3 4 5 6 7 8 9 10 11 12 13 14 15 16 17 18 19 20 21 22 23 24 25 26 27 28 29 30 31 32 33 34 35 36 37 38 39 40 41 42 43 44 45 46 47 48 49 50
879
ASUS43 KIND 130809
RWRIN

WEATHER ROUNDUP FOR INDIANA
NATIONAL WEATHER SERVICE INDIANAPOLIS IN
300 AM EST SAT FEB 13 2016

NOTE: "FAIR" INDICATES FEW OR NO CLOUDS BELOW 12,000 FEET WITH NO
SIGNIFICANT WEATHER AND/OR OBSTRUCTIONS TO VISIBILITY.

* - STATION DOES NOT REPORT WEATHER SUCH AS PRECIPITATION OR FOG.

+ - STATION NOT QUALITY CONTROLLED BY THE NATIONAL WEATHER SERVICE.
    USE DATA WITH CAUTION...ESPECIALLY DEWPOINT AND RELATIVE
    HUMIDITY OBSERVATIONS.

INZ001>003-010>013-019-020-130900-
NORTHWEST INDIANA

CITY           SKY/WX    TMP DP  RH WIND       PRES   REMARKS
GARY /AIRPORT/ MOCLDY    10  -8  44 W15       30.50R WCI  -7
KNOX *+        CLOUDY    12   9  85 NW13      30.42R WCI  -3
LA PORTE +     LGT SNOW  13   8  79 NW10      30.41R WCI   0
MICHIGAN CITY+ FLURRIES  14   1  57 NW14G24   30.44R WCI  -1
MONTICELLO +   CLEAR      9  -7  49 NW13G21   30.45R WCI  -7
RENSSELAER +   CLEAR     10  -9  40 NW14      30.47R WCI  -5
VALPARAISO     CLOUDY    11   0  61 NW14G24   30.44R WCI  -5

$$

LMZ046-743>745-130900-
SOUTHERN LAKE MICHIGAN

STATION/POSITION TIME  TEMP    WIND        PRES    WAVE
                       AIR SEA DIR/SP/G            HT
                 (UTC) (F)     (DEG/KT/KT) (MB)    (FT)
BURNS HARBOR     0713   13     320/ 18/ 25 1030.1S
MICHIGAN CITY    0700   13     300/ 26/ 30   N/A

$$

INZ004-005-014>016-021>024-130900-
NORTH CENTRAL INDIANA

CITY           SKY/WX    TMP DP  RH WIND       PRES   REMARKS
GOSHEN         CLOUDY     7   0  73 N9        30.39R WCI  -7
LOGANSPORT +   CLEAR     10  -4  52 W12G20    30.43R WCI  -4
PERU/GRISSOM   PTCLDY    11   3  70 NW16      30.38R WCI  -6
ROCHESTER +    FLURRIES  14   5  67 NW12      30.40R WCI   0
SOUTH BEND     MOCLDY     7   3  84 NE3       30.40R
WARSAW +       CLOUDY    10   3  72 NE8       30.38R WCI  -1

$$

INZ006>009-017-018-025>027-130900-
NORTHEAST INDIANA

CITY           SKY/WX    TMP DP  RH WIND       PRES   REMARKS
ANGOLA *+      CLEAR      3  -6  66 CALM      30.33R
AUBURN +       CLEAR      5  -4  66 NW6       30.37R WCI  -6
FORT WAYNE     PTCLDY     8  -3  61 N13       30.38R WCI  -8
HUNTINGTON +   LGT SNOW  10   2  72 N8        30.38R WCI  -3

$$

INZ028-029-035-036-043>045-051>053-130900-
WEST CENTRAL INDIANA

CITY           SKY/WX    TMP DP  RH WIND       PRES   REMARKS
CRAWFORDSVL +  CLEAR      8  -9  46 NW10      30.45R WCI  -6
GREENCASTLE +  PTCLDY    12  -8  40 N12G18    30.44R WCI  -2
LAFAYETTE      CLEAR      9  -4  55 NW12      30.47R WCI  -6
TERRE HAUTE    CLEAR     14   3  61 N12       30.48R WCI   0

$$

INZ030>032-037>040-046>048-054>057-064-065-130900-
CENTRAL INDIANA

CITY           SKY/WX    TMP DP  RH WIND       PRES   REMARKS
FRANKFORT +    PTCLDY    11 -10  39 NW13      30.44R WCI  -5
GREENWOOD *+   PTCLDY    14   1  57 NW8       30.41R WCI   3
INDIANAPOLIS   CLEAR     12  -2  53 NW16      30.41R WCI  -5
-EAGLE CREEK   CLEAR     12  -1  56 NW13      30.41R WCI  -3
KOKOMO *+      CLEAR     10   0  61 NW16G22   30.39R WCI  -7
MARION +       CLOUDY    11   0  59 NW15G21   30.39R WCI  -5
MT COMFORT *+  CLEAR     10   1  67 NW15G21   30.40R WCI  -6
SHELBYVILLE    CLEAR     14   1  56 NW10      30.40R WCI   1
ZIONSVILLE +   PTCLDY    10  -1  60 NW14      30.41R WCI  -6

$$

INZ033-034-041-042-049-050-058-059-130900-
EAST CENTRAL INDIANA

CITY           SKY/WX    TMP DP  RH WIND       PRES   REMARKS
MUNCIE         PTCLDY    11   2  67 NW12      30.37R WCI  -3

$$

INZ060-061-067>069-081>083-085>088-130900-
SOUTHWEST INDIANA

CITY           SKY/WX    TMP DP  RH WIND       PRES   REMARKS
EVANSVILLE     CLEAR     19   5  54 NW9       30.51R WCI   8
HUNTINGBURG *+ CLEAR     18   3  53 N14G22    30.47R WCI   4
WASHINGTON +   CLEAR     16   5  62 NW12      30.48R WCI   3

$$

INZ062-063-066-070>080-084-089>092-130900-
SOUTH CENTRAL AND SOUTHEAST INDIANA

CITY           SKY/WX    TMP DP  RH WIND       PRES   REMARKS
BEDFORD +      CLEAR     16   5  62 NW6       30.43R WCI   7
BLOOMINGTON    CLEAR     14   2  58 VRB7      30.42R WCI   4
MADISON *+     PTCLDY    19   3  49 NW8       30.41R WCI   9
NORTH VERNON + PTCLDY    16   3  57 NW13G20   30.40R WCI   2
SEYMOUR +      PTCLDY    19   1  45 NW12      30.43R WCI   7

$$





USA.gov is the U.S. government's official web portal to all federal, state and local government web resources and services.